Location: ????
(30.1475°N, 31.1342°E)
Time: 16:28:55
(UTC+00:00)

Cosmos 1605 Rocket - Pass Details

Date: 06 April 2023
Orbit: 943 x 1006 km, 82.9° (Epoch: 28 May)

Event Time Altitude Azimuth Distance (km) Brightness Sun altitude
Rises 02:34:19 0° 159° (SSE) 3,683 7.1 -14.6°
Reaches altitude 10° 02:37:03 10° 150° (SSE) 2,747 6.5 -14.0°
Maximum altitude 02:42:36 33° 88° (E) 1,608 5.9 -12.9°
Drops below altitude 10° 02:48:11 10° 27° (NNE) 2,782 7.0 -11.7°
Sets 02:50:58 0° 18° (NNE) 3,737 7.5 -11.1°
